Погода в Шахматово

Россия / Челябинская область     54°59′08″N   60°38′08″E
темп.,
°C
ветер,
м/с
пор.,
м/с
влажн.,
%
обл.,
%
осадки,
мм/ч
давл.,
гПа
погр.,
м
18 января, вт
вт1823:00−11юз71385100 0.0 1011348
02:00−9юз61284100 0.0 1011346
05:00−9юз61183100 0.0 1013299
08:00−8юз6118588 0.0 1013299
11:00−10ююз612865 0.0 1015301
14:00−8юз6128694 0.0 1016323
17:00−8ююз6128798 0.0 1017250
20:00−7ююз71287100 0.0 1017278
19 января, ср
ср1923:00−7ююз6128798 0.0 1017268
02:00−7ююз51088100 0.0 1018207
05:00−8ююз4890100 0.0 1018152
08:00−7ююз379098 0.0 1019118
11:00−6юз4988100 0.0 1019191
14:00−4ююз4887100 0.0 1019218
17:00−5ююз3690100 0.0 102094
20:00−7юз4889100 0.0 102197
20 января, чт
чт2023:00−8юз498898 0.0 1021122
02:00
05:00−9юз3587100 0.0 102357
08:00−9юз3488100 0.0 102444
11:00
14:00−5юз24885 0.0 1024144
17:00−10юз22935 0.0 102610
20:00−14зюз22955 0.0 102710
21 января, пт
пт2123:00−16зюз22965 0.0 102812
02:00−16зюз329719 0.0 102815
05:00−17зюз229819 0.0 102912
08:00−18зсз22995 0.0 10299
11:00−13з11955 0.0 103026
14:00−7ююз12905 0.0 102975
17:00−13ююз22965 0.0 10319
20:00−16юз229955 0.0 10329
22 января, сб
сб2223:00−17зюз229982 0.0 103311
02:00−18зюз229990 0.0 10339
05:00−19юз229933 0.0 103310
08:00−19юз2210099 0.0 103411
11:00−12юз2293100 0.0 103449
14:00−8ююз2488100 0.0 1034125
17:00−10ю2390100 0.0 103538
20:00−12ююз229296 0.0 103627